TimeMST,TemperatureF,Dew PointF,Humidity,Sea Level PressureIn,VisibilityMPH,Wind Direction,Wind SpeedMPH,Gust SpeedMPH,PrecipitationIn,Events,Conditions,WindDirDegrees,DateUTC
12:11 AM,28.4,24.8,86,29.53,1.8,SSW,11.5,-,0.00,Snow,Light Snow,210,2013-02-21 07:11:00
12:18 AM,26.6,24.8,93,29.53,0.8,SSW,9.2,-,0.00,Snow,Light Snow,210,2013-02-21 07:18:00
12:33 AM,26.6,24.8,93,29.52,0.5,SSW,6.9,-,0.01,Fog-Snow,Snow,210,2013-02-21 07:33:00
12:48 AM,26.6,24.8,93,29.52,1.0,SSW,5.8,-,0.02,Snow,Light Snow,210,2013-02-21 07:48:00
12:53 AM,27.0,25.0,92,29.47,1.0,SSW,5.8,-,0.03,Snow,Light Snow,210,2013-02-21 07:53:00
1:01 AM,26.6,24.8,93,29.50,0.8,Calm,Calm,-,0.00,Snow,Light Snow,0,2013-02-21 08:01:00
1:08 AM,26.6,24.8,93,29.49,1.0,NE,4.6,-,0.01,Snow,Light Snow,40,2013-02-21 08:08:00
1:32 AM,26.6,24.8,93,29.48,3.0,North,5.8,-,0.01,Snow,Light Snow,350,2013-02-21 08:32:00
1:44 AM,26.6,24.8,93,29.47,9.0,North,5.8,-,0.01,,Overcast,350,2013-02-21 08:44:00
1:53 AM,27.0,25.0,92,29.43,10.0,NNW,3.5,-,0.01,,Overcast,330,2013-02-21 08:53:00
2:14 AM,26.6,24.8,93,29.47,10.0,NW,9.2,-,N/A,,Overcast,310,2013-02-21 09:14:00
2:22 AM,26.6,24.8,93,29.47,10.0,WNW,11.5,-,N/A,,Overcast,300,2013-02-21 09:22:00
2:53 AM,27.0,25.0,92,29.42,2.5,NW,12.7,-,0.00,Snow,Light Snow,310,2013-02-21 09:53:00
3:05 AM,26.6,24.8,93,29.46,1.5,WNW,12.7,-,0.00,Snow,Light Snow,300,2013-02-21 10:05:00
3:40 AM,23.0,19.4,86,29.47,0.8,West,20.7,-,0.01,Snow,Light Snow,280,2013-02-21 10:40:00
3:53 AM,23.0,19.9,88,29.45,0.5,West,19.6,-,0.01,Fog-Snow,Snow,280,2013-02-21 10:53:00
4:15 AM,23.0,19.4,86,29.50,1.0,WNW,21.9,-,0.01,Snow,Light Snow,290,2013-02-21 11:15:00
4:22 AM,23.0,19.4,86,29.50,3.0,WNW,20.7,-,0.01,Snow,Light Snow,290,2013-02-21 11:22:00
4:53 AM,23.0,19.9,88,29.53,9.0,WNW,25.3,31.1,0.03,,Overcast,290,2013-02-21 11:53:00
5:53 AM,24.1,21.0,88,29.57,10.0,WNW,21.9,-,0.00,,Overcast,300,2013-02-21 12:53:00
6:14 AM,23.0,19.4,86,29.56,10.0,WNW,20.7,-,N/A,,Mostly Cloudy,300,2013-02-21 13:14:00
6:38 AM,24.8,21.2,86,29.58,10.0,WNW,21.9,-,N/A,,Overcast,300,2013-02-21 13:38:00
6:53 AM,24.1,21.0,88,29.62,10.0,WNW,24.2,-,N/A,,Mostly Cloudy,300,2013-02-21 13:53:00
7:03 AM,24.8,19.4,80,29.59,10.0,WNW,25.3,33.4,N/A,,Mostly Cloudy,300,2013-02-21 14:03:00
7:53 AM,24.1,19.9,84,29.65,10.0,WNW,24.2,-,N/A,,Clear,300,2013-02-21 14:53:00
8:53 AM,28.9,19.9,69,29.67,7.0,WNW,31.1,43.7,0.00,,Clear,300,2013-02-21 15:53:00
9:53 AM,30.0,21.0,69,29.71,10.0,West,21.9,35.7,0.00,,Partly Cloudy,280,2013-02-21 16:53:00
10:53 AM,32.0,21.9,66,29.74,10.0,West,26.5,34.5,N/A,,Scattered Clouds,280,2013-02-21 17:53:00
11:53 AM,30.9,21.0,67,29.74,10.0,West,26.5,34.5,N/A,,Overcast,280,2013-02-21 18:53:00
12:53 PM,32.0,21.0,64,29.71,10.0,West,28.8,35.7,N/A,,Overcast,280,2013-02-21 19:53:00
1:34 PM,33.8,21.2,60,29.69,10.0,West,27.6,35.7,N/A,,Overcast,280,2013-02-21 20:34:00
1:44 PM,33.8,21.2,60,29.69,10.0,West,27.6,34.5,N/A,,Mostly Cloudy,280,2013-02-21 20:44:00
1:53 PM,36.0,23.0,59,29.68,10.0,WNW,28.8,35.7,N/A,,Mostly Cloudy,290,2013-02-21 20:53:00
2:53 PM,34.0,24.1,67,29.71,10.0,West,24.2,27.6,N/A,,Scattered Clouds,280,2013-02-21 21:53:00
3:53 PM,36.0,21.0,55,29.73,10.0,WNW,25.3,33.4,N/A,,Mostly Cloudy,290,2013-02-21 22:53:00
4:53 PM,34.0,23.0,64,29.73,10.0,West,25.3,-,N/A,,Partly Cloudy,270,2013-02-21 23:53:00
5:53 PM,30.9,21.9,69,29.76,10.0,West,26.5,-,N/A,,Clear,270,2013-02-22 00:53:00
6:53 PM,30.0,21.0,69,29.79,10.0,West,27.6,36.8,N/A,,Clear,270,2013-02-22 01:53:00
7:53 PM,28.9,19.9,69,29.82,10.0,West,24.2,-,N/A,,Clear,270,2013-02-22 02:53:00
8:53 PM,28.0,19.0,69,29.83,10.0,West,21.9,26.5,N/A,,Clear,280,2013-02-22 03:53:00
9:53 PM,26.1,18.0,71,29.86,10.0,West,16.1,-,N/A,,Clear,280,2013-02-22 04:53:00
10:53 PM,21.9,17.1,82,29.87,10.0,West,9.2,-,N/A,,Clear,280,2013-02-22 05:53:00
11:53 PM,21.9,17.1,82,29.88,10.0,WNW,12.7,-,N/A,,Clear,300,2013-02-22 06:53:00